Mayport NS, FL

9:32 PM EDT on October 21, 2017 (GMT -0400)
Mayport Naval Station / Adm. David L. McDonald Field

Weather History for KNRB - April, 2013

Change the Weather History Date:

Tuesday, April 30, 2013

  Actual Average Record
Temperature  
Mean Temperature 68 °F -  
Max Temperature 75 °F 77 °F 84 °F (2007)
Min Temperature 64 °F 63 °F 51 °F (1999)
Cooling Degree Days 4    
Growing Degree Days 18 (Base 50)    
Moisture  
Dew Point 66 °F    
Average Humidity 90    
Maximum Humidity 100    
Minimum Humidity 76    
Precipitation  
Precipitation 0.00 in - - ()
Sea Level Pressure  
Sea Level Pressure 30.00 in    
Wind  
Wind Speed 4 mph (ENE)    
Max Wind Speed 14 mph    
Max Gust Speed -    
Visibility 9 miles    
Events      
Averages and records for this station are not official NWS values.
T = Trace of Precipitation, MM = Missing Value Source: NWS Daily Summary

Daily Weather History Graph

Daily Weather History Graph

Search for Another Location

Airport or City:

Trip Planner

Search our weather history database for the weather conditions in past years. The results will help you decide how hot, cold, wet, or windy it might be!

Date:

Astronomy

Apr. 30, 2013 Rise Set
Actual Time 6:42 AM EDT 8:03 PM EDT
Civil Twilight 6:17 AM EDT 8:28 PM EDT
Nautical Twilight 5:47 AM EDT 8:59 PM EDT
Astronomical Twilight 5:15 AM EDT 9:30 PM EDT
Moon 12:20 AM EDT (4/30) 11:14 AM EDT (4/30)
Length of Visible Light 14h 11m
Length of Day
13h 20m
Waning Gibbous, 70% of the Moon is Illuminated
Apr 30
Waning Gibbous
May 2
Last Quarter
May 9
New
May 18
First Quarter
May 25
Full

Hourly Weather History & Observations

Time (EDT) Temp. Dew Point Humidity Pressure Visibility Wind Dir Wind Speed Gust Speed Precip Events Conditions
12:52 AM 64.9 °F 64.9 °F 100% 29.96 in 10.0 mi SSE 3.5 mph - N/A   Partly Cloudy
1:52 AM 64.9 °F 64.0 °F 97% 29.96 in 9.0 mi Calm Calm - N/A   Scattered Clouds
2:16 AM 64.4 °F 64.4 °F 100% 29.96 in 8.0 mi Calm Calm - N/A   Mostly Cloudy
2:52 AM 66.0 °F 64.9 °F 96% 29.97 in 9.0 mi Calm Calm - N/A   Mostly Cloudy
3:52 AM 66.0 °F 64.9 °F 96% 29.97 in 7.0 mi Calm Calm - N/A   Clear
4:52 AM 66.9 °F 66.0 °F 97% 29.98 in 7.0 mi Calm Calm - N/A   Scattered Clouds
5:40 AM 66.2 °F 66.2 °F 100% 29.96 in 7.0 mi Calm Calm - N/A   Mostly Cloudy
5:52 AM 66.9 °F 66.0 °F 97% 29.96 in 8.0 mi Calm Calm - N/A   Mostly Cloudy
6:52 AM 66.0 °F 64.9 °F 96% 29.98 in 10.0 mi Calm Calm - N/A   Mostly Cloudy
7:52 AM 66.0 °F 66.0 °F 100% 30.00 in 8.0 mi Calm Calm - N/A   Mostly Cloudy
8:52 AM 68.0 °F 66.9 °F 96% 30.01 in 7.0 mi Calm Calm - N/A   Mostly Cloudy
9:52 AM 70.0 °F 68.0 °F 93% 30.02 in 10.0 mi Calm Calm - N/A   Mostly Cloudy
10:52 AM 73.0 °F 66.9 °F 81% 30.01 in 10.0 mi WNW 4.6 mph - N/A   Scattered Clouds
11:52 AM 73.0 °F 68.0 °F 84% 30.02 in 10.0 mi NE 6.9 mph - N/A   Scattered Clouds
12:52 PM 72.0 °F 68.0 °F 87% 30.01 in 7.0 mi NE 10.4 mph - N/A   Mostly Cloudy
1:52 PM 73.0 °F 66.9 °F 81% 30.00 in 10.0 mi ENE 11.5 mph - N/A   Scattered Clouds
2:52 PM 72.0 °F 66.9 °F 84% 30.00 in 10.0 mi NE 11.5 mph - N/A   Scattered Clouds
3:52 PM 73.0 °F 66.9 °F 81% 29.99 in 10.0 mi ENE 13.8 mph - N/A   Scattered Clouds
4:52 PM 73.0 °F 64.9 °F 76% 29.99 in 10.0 mi ENE 12.7 mph - N/A   Scattered Clouds
5:52 PM 72.0 °F 64.0 °F 76% 30.00 in 10.0 mi East 12.7 mph - N/A   Scattered Clouds
6:52 PM 70.0 °F 64.0 °F 81% 30.00 in 10.0 mi ENE 12.7 mph - N/A   Mostly Cloudy
7:52 PM 69.1 °F 64.0 °F 84% 30.02 in 10.0 mi ENE 12.7 mph - N/A   Mostly Cloudy
8:52 PM 69.1 °F 64.9 °F 87% 30.03 in 10.0 mi East 9.2 mph - N/A   Mostly Cloudy
9:52 PM 69.1 °F 66.0 °F 90% 30.05 in 10.0 mi East 5.8 mph - N/A   Mostly Cloudy
10:52 PM 68.0 °F 64.9 °F 90% 30.06 in 10.0 mi NE 8.1 mph - N/A   Scattered Clouds
11:52 PM 66.9 °F 64.9 °F 93% 30.05 in 10.0 mi NE 4.6 mph - N/A   Scattered Clouds